TimeEDT,TemperatureF,Dew PointF,Humidity,Sea Level PressureIn,VisibilityMPH,Wind Direction,Wind SpeedMPH,Gust SpeedMPH,PrecipitationIn,Events,Conditions,WindDirDegrees,DateUTC
12:16 AM,62.6,54.7,75,29.78,10.0,Calm,Calm,-,N/A,,Clear,0,2013-07-20 04:16:00
12:35 AM,61.7,54.5,77,29.78,10.0,Calm,Calm,-,N/A,,Clear,0,2013-07-20 04:35:00
12:56 AM,62.1,55.4,79,29.78,10.0,WSW,4.6,-,N/A,,Clear,250,2013-07-20 04:56:00
1:16 AM,61.9,55.8,80,29.78,10.0,West,3.5,-,N/A,,Scattered Clouds,260,2013-07-20 05:16:00
1:36 AM,62.1,56.3,81,29.77,10.0,Calm,Calm,-,N/A,,Mostly Cloudy,0,2013-07-20 05:36:00
1:56 AM,61.9,56.3,82,29.78,10.0,Calm,Calm,-,N/A,,Overcast,0,2013-07-20 05:56:00
2:15 AM,61.2,55.9,83,29.79,10.0,Calm,Calm,-,N/A,,Overcast,0,2013-07-20 06:15:00
2:36 AM,60.8,55.6,83,29.79,10.0,Calm,Calm,-,N/A,,Overcast,0,2013-07-20 06:36:00
2:56 AM,61.7,55.6,80,29.79,10.0,Calm,Calm,-,N/A,,Mostly Cloudy,0,2013-07-20 06:56:00
3:16 AM,62.1,55.8,80,29.79,10.0,Calm,Calm,-,N/A,,Mostly Cloudy,0,2013-07-20 07:16:00
3:36 AM,61.3,55.8,82,29.79,10.0,Calm,Calm,-,N/A,,Scattered Clouds,0,2013-07-20 07:36:00
3:55 AM,60.3,55.8,85,29.80,10.0,North,3.5,-,N/A,,Clear,350,2013-07-20 07:55:00
4:16 AM,61.9,54.5,77,29.80,10.0,North,8.1,-,N/A,,Clear,350,2013-07-20 08:16:00
4:36 AM,61.0,53.2,76,29.82,10.0,North,17.3,24.2,N/A,,Clear,360,2013-07-20 08:36:00
4:56 AM,59.0,51.4,76,29.82,10.0,North,11.5,-,N/A,,Clear,10,2013-07-20 08:56:00
5:16 AM,58.1,50.9,77,29.83,10.0,North,11.5,-,N/A,,Clear,10,2013-07-20 09:16:00
5:35 AM,57.2,50.4,78,29.84,10.0,North,9.2,-,N/A,,Clear,10,2013-07-20 09:35:00
5:56 AM,56.5,50.0,79,29.85,10.0,North,10.4,-,N/A,,Clear,10,2013-07-20 09:56:00
6:50 AM,55.4,50.0,82,29.87,10.0,North,6.9,-,N/A,,Clear,10,2013-07-20 10:50:00
7:50 AM,57.2,48.2,72,29.89,10.0,North,13.8,-,N/A,,Clear,10,2013-07-20 11:50:00
8:55 AM,57.2,44.6,63,29.92,10.0,NNE,17.3,-,N/A,,Clear,20,2013-07-20 12:55:00
9:50 AM,59.0,44.6,59,29.94,10.0,NE,17.3,23.0,N/A,,Clear,40,2013-07-20 13:50:00
10:50 AM,59.0,44.6,59,29.96,10.0,NNE,13.8,21.9,N/A,,Scattered Clouds,30,2013-07-20 14:50:00
11:50 AM,59.0,46.4,63,29.98,10.0,North,11.5,17.3,N/A,,Scattered Clouds,10,2013-07-20 15:50:00
12:50 PM,60.8,46.4,59,29.99,10.0,NNE,15.0,20.7,N/A,,Scattered Clouds,30,2013-07-20 16:50:00
1:50 PM,60.8,46.4,59,30.00,10.0,NNE,8.1,17.3,N/A,,Partly Cloudy,30,2013-07-20 17:50:00
2:50 PM,60.8,46.4,59,29.99,10.0,NNE,13.8,18.4,N/A,,Partly Cloudy,20,2013-07-20 18:50:00
3:50 PM,59.0,46.4,63,30.00,10.0,NNE,15.0,23.0,N/A,,Partly Cloudy,20,2013-07-20 19:50:00
4:50 PM,59.0,46.4,63,30.01,10.0,NNE,13.8,20.7,N/A,,Partly Cloudy,20,2013-07-20 20:50:00
5:55 PM,57.2,46.4,67,30.01,10.0,North,12.7,-,N/A,,Clear,10,2013-07-20 21:55:00
6:55 PM,57.2,46.4,67,30.00,10.0,NNE,15.0,-,N/A,,Clear,20,2013-07-20 22:55:00
7:50 PM,55.4,44.6,67,30.00,10.0,NNE,10.4,-,N/A,,Clear,20,2013-07-20 23:50:00
8:50 PM,53.6,44.6,72,30.00,10.0,NNE,10.4,-,N/A,,Clear,20,2013-07-21 00:50:00
9:50 PM,51.8,46.4,82,30.01,10.0,NNE,6.9,-,N/A,,Clear,20,2013-07-21 01:50:00
10:15 PM,50.9,45.5,82,30.03,10.0,Calm,Calm,-,N/A,,Clear,0,2013-07-21 02:15:00
10:36 PM,50.7,45.5,82,30.03,10.0,NNE,3.5,-,N/A,,Clear,20,2013-07-21 02:36:00
10:56 PM,48.9,44.6,85,30.04,10.0,Calm,Calm,-,N/A,,Clear,0,2013-07-21 02:56:00
11:15 PM,47.7,44.4,89,30.04,10.0,North,5.8,-,N/A,,Clear,10,2013-07-21 03:15:00
11:36 PM,47.7,44.4,89,30.04,10.0,North,3.5,-,N/A,,Clear,360,2013-07-21 03:36:00
11:56 PM,47.5,43.9,87,30.04,10.0,Calm,Calm,-,N/A,,Clear,0,2013-07-21 03:56:00